• în România
  • Lista ţărilor
  • Pe 7 zile
  • Temperatura apei
  • Hartă satelitară
  • Meteo pe hartă
  • Widget-uri
  • user-avatar
    Intrare

    Meteo pe oră la Abutkovo

    Astăzi, 20 Aprilie, Vineri

    Timp Temperatura Precipitaţii Vânt Presiune Umiditate
    00:00 +5°C° 0 mm 4 m/s 742 mmHg 85%
    01:00 +5°C° 0 mm 4 m/s 742 mmHg 88%
    02:00 +4°C° 0 mm 3 m/s 743 mmHg 91%
    03:00 +4°C° 0 mm 3 m/s 743 mmHg 93%
    04:00 +3°C° 0 mm 3 m/s 743 mmHg 94%
    05:00 +3°C° 0 mm 3 m/s 744 mmHg 96%
    06:00 +4°C° 0 mm 3 m/s 744 mmHg 91%
    07:00 +5°C° 0 mm 3 m/s 744 mmHg 86%
    08:00 +8°C° 0 mm 3 m/s 745 mmHg 82%
    09:00 +8°C° 0 mm 3 m/s 745 mmHg 78%
    10:00 +9°C° 0 mm 3 m/s 745 mmHg 75%
    11:00 +9°C° 0 mm 3 m/s 745 mmHg 71%
    12:00 +10°C° 0 mm 3 m/s 745 mmHg 68%
    13:00 +11°C° 0 mm 3 m/s 745 mmHg 64%
    14:00 +11°C° 0 mm 3 m/s 745 mmHg 61%
    15:00 +11°C° 0 mm 3 m/s 745 mmHg 61%
    16:00 +12°C° 0 mm 2 m/s 744 mmHg 62%
    17:00 +12°C° 0 mm 2 m/s 744 mmHg 63%
    18:00 +10°C° 0 mm 2 m/s 744 mmHg 70%
    19:00 +8°C° 0 mm 2 m/s 743 mmHg 77%
    20:00 +7°C° 0 mm 2 m/s 743 mmHg 84%
    21:00 +7°C° 0 mm 2 m/s 742 mmHg 85%
    22:00 +7°C° 0 mm 3 m/s 741 mmHg 85%
    23:00 +5°C° 0 mm 3 m/s 741 mmHg 86%

    Mâine, 21 Aprilie, Sâmbătă

    Timp Temperatura Precipitaţii Vânt Presiune Umiditate
    00:00 +6°C° 0 mm 4 m/s 740 mmHg 85%
    01:00 +6°C° 0 mm 4 m/s 739 mmHg 83%
    02:00 +6°C° 0 mm 5 m/s 738 mmHg 82%
    03:00 +6°C° 0 mm 5 m/s 737 mmHg 83%
    04:00 +7°C° 0 mm 5 m/s 736 mmHg 84%
    05:00 +7°C° 0 mm 5 m/s 735 mmHg 86%
    06:00 +7°C° 0 mm 5 m/s 734 mmHg 84%
    07:00 +8°C° 0 mm 6 m/s 733 mmHg 83%
    08:00 +9°C° 0 mm 6 m/s 732 mmHg 81%
    09:00 +10°C° 0 mm 6 m/s 731 mmHg 79%
    10:00 +11°C° 0 mm 7 m/s 730 mmHg 77%
    11:00 +12°C° 0 mm 7 m/s 729 mmHg 74%
    12:00 +12°C° 0,3 mm 7 m/s 728 mmHg 75%
    13:00 +12°C° 0,3 mm 7 m/s 727 mmHg 75%
    14:00 +12°C° 0,3 mm 7 m/s 726 mmHg 75%
    15:00 +10°C° 0,2 mm 8 m/s 726 mmHg 72%
    16:00 +8°C° 0,2 mm 9 m/s 727 mmHg 68%
    17:00 +7°C° 0,2 mm 9 m/s 727 mmHg 64%
    18:00 +6°C° 0 mm 9 m/s 727 mmHg 65%
    19:00 +6°C° 0 mm 9 m/s 727 mmHg 66%
    20:00 +5°C° 0 mm 8 m/s 728 mmHg 67%
    21:00 +4°C° 0 mm 8 m/s 728 mmHg 68%
    22:00 +4°C° 0 mm 8 m/s 728 mmHg 69%
    23:00 +2°C° 0 mm 8 m/s 728 mmHg 70%

    Poimâine, 22 Aprilie, Duminică

    Timp Temperatura Precipitaţii Vânt Presiune Umiditate
    00:00 +2°C° 0 mm 8 m/s 729 mmHg 72%
    01:00 +2°C° 0 mm 7 m/s 729 mmHg 73%
    02:00 +2°C° 0 mm 7 m/s 730 mmHg 75%
    03:00 0°C° 0 mm 7 m/s 730 mmHg 74%
    04:00 0°C° 0 mm 7 m/s 731 mmHg 74%
    05:00 +1°C° 0 mm 6 m/s 731 mmHg 74%
    06:00 +1°C° 0 mm 6 m/s 732 mmHg 71%
    07:00 +2°C° 0 mm 6 m/s 732 mmHg 68%
    08:00 +2°C° 0 mm 6 m/s 732 mmHg 65%
    09:00 +3°C° 0 mm 6 m/s 733 mmHg 62%
    10:00 +3°C° 0 mm 6 m/s 733 mmHg 59%
    11:00 +5°C° 0 mm 5 m/s 733 mmHg 57%
    12:00 +5°C° 0 mm 5 m/s 734 mmHg 54%
    13:00 +6°C° 0 mm 5 m/s 734 mmHg 51%
    14:00 +7°C° 0 mm 5 m/s 734 mmHg 48%
    15:00 +6°C° 0 mm 5 m/s 735 mmHg 49%
    16:00 +6°C° 0 mm 5 m/s 735 mmHg 50%
    17:00 +5°C° 0 mm 5 m/s 735 mmHg 51%
    18:00 +4°C° 0 mm 4 m/s 736 mmHg 56%
    19:00 +2°C° 0 mm 3 m/s 736 mmHg 61%
    20:00 +2°C° 0 mm 2 m/s 737 mmHg 67%
    21:00 +1°C° 0 mm 2 m/s 737 mmHg 70%
    22:00 +1°C° 0 mm 2 m/s 737 mmHg 73%
    23:00 +1°C° 0 mm 1 m/s 738 mmHg 76%

    23 Aprilie, Luni

    Timp Temperatura Precipitaţii Vânt Presiune Umiditate
    00:00 -1°C° 0 mm 2 m/s 738 mmHg 77%
    01:00 -2°C° 0 mm 2 m/s 738 mmHg 78%
    02:00 -2°C° 0 mm 2 m/s 739 mmHg 78%
    03:00 -2°C° 0 mm 2 m/s 739 mmHg 78%
    04:00 -2°C° 0 mm 2 m/s 739 mmHg 77%
    05:00 -2°C° 0 mm 2 m/s 740 mmHg 76%
    06:00 -1°C° 0 mm 3 m/s 740 mmHg 66%
    07:00 +1°C° 0 mm 3 m/s 740 mmHg 57%
    08:00 +2°C° 0 mm 3 m/s 740 mmHg 47%
    09:00 +3°C° 0 mm 3 m/s 741 mmHg 45%
    10:00 +4°C° 0 mm 3 m/s 741 mmHg 42%
    11:00 +4°C° 0 mm 3 m/s 741 mmHg 40%
    12:00 +5°C° 0 mm 3 m/s 741 mmHg 39%
    13:00 +5°C° 0 mm 3 m/s 741 mmHg 39%
    14:00 +7°C° 0 mm 3 m/s 740 mmHg 38%
    15:00 +7°C° 0 mm 3 m/s 740 mmHg 39%
    16:00 +5°C° 0 mm 3 m/s 740 mmHg 41%
    17:00 +5°C° 0 mm 3 m/s 740 mmHg 42%
    18:00 +5°C° 0 mm 2 m/s 741 mmHg 47%
    19:00 +4°C° 0 mm 2 m/s 741 mmHg 52%
    20:00 +4°C° 0 mm 1 m/s 741 mmHg 56%
    21:00 +3°C° 0 mm 1 m/s 741 mmHg 59%
    22:00 +2°C° 0 mm 1 m/s 741 mmHg 61%
    23:00 +2°C° 0 mm 1 m/s 741 mmHg 64%

    24 Aprilie, Marţi

    Timp Temperatura Precipitaţii Vânt Presiune Umiditate
    00:00 +1°C° 0 mm 1 m/s 741 mmHg 66%
    01:00 0°C° 0 mm 1 m/s 741 mmHg 68%
    02:00 0°C° 0 mm 1 m/s 741 mmHg 70%
    03:00 0°C° 0 mm 1 m/s 741 mmHg 69%
    04:00 0°C° 0 mm 1 m/s 741 mmHg 68%
    05:00 0°C° 0 mm 1 m/s 741 mmHg 68%
    06:00 +2°C° 0 mm 1 m/s 741 mmHg 60%
    07:00 +3°C° 0 mm 2 m/s 741 mmHg 52%
    08:00 +5°C° 0 mm 2 m/s 741 mmHg 45%
    09:00 +6°C° 0 mm 2 m/s 740 mmHg 42%
    10:00 +7°C° 0 mm 2 m/s 740 mmHg 40%
    11:00 +8°C° 0 mm 3 m/s 740 mmHg 37%
    12:00 +9°C° 0 mm 3 m/s 740 mmHg 37%
    13:00 +9°C° 0 mm 3 m/s 739 mmHg 36%
    14:00 +10°C° 0 mm 3 m/s 739 mmHg 35%
    15:00 +10°C° 0 mm 3 m/s 739 mmHg 37%
    16:00 +10°C° 0 mm 3 m/s 738 mmHg 39%
    17:00 +9°C° 0 mm 3 m/s 738 mmHg 42%
    18:00 +8°C° 0 mm 3 m/s 738 mmHg 48%
    19:00 +5°C° 0 mm 3 m/s 738 mmHg 55%
    20:00 +3°C° 0 mm 3 m/s 738 mmHg 61%
    21:00 +3°C° 0 mm 3 m/s 737 mmHg 63%
    22:00 +2°C° 0 mm 3 m/s 737 mmHg 64%
    23:00 +2°C° 0 mm 3 m/s 737 mmHg 65%

    25 Aprilie, Miercuri

    Timp Temperatura Precipitaţii Vânt Presiune Umiditate
    00:00 +2°C° 0 mm 3 m/s 737 mmHg 66%
    01:00 +2°C° 0 mm 3 m/s 737 mmHg 68%
    02:00 +1°C° 0 mm 3 m/s 737 mmHg 69%
    03:00 +1°C° 0,1 mm 3 m/s 737 mmHg 71%
    04:00 +2°C° 0,1 mm 3 m/s 737 mmHg 72%
    05:00 +2°C° 0,1 mm 3 m/s 737 mmHg 73%
    06:00 +1°C° 0 mm 4 m/s 737 mmHg 74%
    07:00 +3°C° 0 mm 4 m/s 737 mmHg 75%
    08:00 +4°C° 0 mm 4 m/s 737 mmHg 76%
    09:00 +4°C° 0 mm 4 m/s 737 mmHg 76%
    10:00 +5°C° 0 mm 3 m/s 737 mmHg 76%
    11:00 +7°C° 0 mm 3 m/s 737 mmHg 75%
    12:00 +8°C° 0 mm 3 m/s 737 mmHg 75%
    13:00 +8°C° 0 mm 3 m/s 737 mmHg 74%
    14:00 +9°C° 0 mm 3 m/s 737 mmHg 74%
    15:00 +9°C° 0 mm 3 m/s 737 mmHg 73%
    16:00 +9°C° 0 mm 3 m/s 736 mmHg 73%
    17:00 +9°C° 0 mm 3 m/s 736 mmHg 72%
    18:00 +8°C° 0 mm 3 m/s 736 mmHg 76%
    19:00 +7°C° 0 mm 3 m/s 736 mmHg 80%
    20:00 +7°C° 0 mm 3 m/s 735 mmHg 84%
    21:00 +6°C° 0 mm 4 m/s 735 mmHg 83%
    22:00 +6°C° 0 mm 4 m/s 734 mmHg 83%
    23:00 +6°C° 0 mm 5 m/s 733 mmHg 82%
    Arată mai mult